User: anonymous   Login
Location: Nantong Television Tower
(32.0188°N, 120.8512°E)
Time: 04:08:00
(UTC+08:00)
Language:

ATLAS 3B CENTAUR R/B - Orbit

View from above orbital plane
View from above orbital plane
View from above satellite
View from above satellite

Ground track
Ground track

The orbit data is extracted from the following two-line orbital elements,

1 28118U 03057B   18172.18414322  .00055580 -36101-6  71198-3 0  9999
2 28118  28.1025 189.1768 2827771 132.1911 255.5923  9.83445667325173
Epoch (UTC): 21 June 2018 04:25:09
Eccentricity: 0.2827771
inclination: 28.1025°
perigee height: 222 km
apogee height: 5426 km
right ascension of ascending node: 189.1768°
argument of perigee: 132.1911°
revolutions per day: 9.83445667
mean anomaly at epoch: 255.5923°
orbit number at epoch: 32517

The dashed part of the orbit path shows where the satellite is in the earth's shadow,  

DLR